SCP
0 0 0 0 0 0 0 0 0 0 0 0 0 0 0 0 0 -0 -0 0 0 -0 -0 -0 -0 -0 -0 -0 -0 -0 -0 -0 -0 -0 -0 0 -0 -0 -0 -0 0 -0 0 0 0 0 -0
0 0 0 0 0 0 0 0 0 0 0 0 0 0 0 0 0 -0 -0 -0 0 -0 -0 -0 -0 -0 0 0 0 0 0 0 -0 -0 0 0 0 0 0 0 -0 0 0 0 0 0 0
-0 -0 0 0 0 0 0 0 0 0 0 0 0 0 0 0 0 -0 -0 0 0 -0 -0 -0 0 0 -0 0 0 0 0 0 0 0 0 -0 0 -0 -0 -0 -0 0 -0 0 0 0 0
0 0 0 0 0 0 0 0 0 0 0 0 0 0 0 0 0 0 -0 0 0 -0 -0 -0 0 0 0 0 0 0 -0 -0 0 0 -0 0 -0 -0 -0 0 -0 -0 -0 -0 0 0 0
0 0 0 0 0 0 0 0 0 0 0 0 0 0 0 0 0 0 -0 -0 -0 -0 0 0 0 0 0 0 -0 0 -0 0 0 0 -0 0 -0 -0 -0 -0 -0 0 -0 0 0 0 -0
0 0 0 0 0 0 0 0 0 0 0 0 0 0 0 0 0 0 -0 0 0 0 0 0 0 0 -0 0 0 0 -0 -0 -0 -0 -0 -0 -0 -0 -0 -0 -0 0 0 0 -0 0 0
0 0 0 0 0 0 0 0 0 0 0 0 0 0 0 0 0 0 0 0 0 0 0 0 0 0 0 0 -0 -0 0 -0 -0 -0 -0 -0 -0 0 0 0 0 0 -0 0 0 0 0
0 0 0 0 0 0 0 0 0 0 0 0 0 0 0 0 0 0 0 0 0 0 0 0 0 0 0 0 0 0 -0 -0 -0 -0 0 -0 0 0 0 0 -0 -0 0 -0 0 0 0
0 0 0 0 0 0 0 0 0 0 0 0 0 0 0 0 0 0 0 0 0 0 0 0 0 -0 0 -0 0 -0 -0 0 -0 -0 -0 -0 0 0 -0 0 -0 -0 0 -0 -0 -0 0
0 0 0 0 0 0 0 0 0 0 0 0 0 0 0 0 0 0 0 0 0 0 0 0 0 0 0 -0 0 0 0 0 -0 -0 0 0 0 0 -0 0 0 0 0 0 0 0 0
0 0 0 0 0 0 0 -0 -0 -0 0 0 0 0 0 0 0 0 0 0 0 0 0 0 0 0 0 -0 0 0 0 -0 0 0 -0 0 0 0 -0 0 0 0 0 0 0 0 0
0 0 0 0 0 0 0 0 -0 -0 -0 -0 0 0 0 0 0 0 0 0 0 0 0 0 0 0 0 -0 0 0 0 -0 0 0 -0 0 0 0 0 0 0 0 0 0 0 0 -0
0 0 0 0 0 0 0 0 -0 -0 -0 -0 0 0 0 0 0 0 0 0 0 0 0 0 0 -0 0 0 0 -0 0 -0 0 0 -0 0 0 0 -0 -0 0 0 0 0 0 0 0
0 0 0 0 0 0 0 0 0 0 -0 -0 0 0 -0 0 0 0 0 0 0 0 0 0 0 0 0 0 0 0 -0 0 0 0 0 0 0 0 0 0 0 0 0 0 0 -0 -0
0 0 0 0 0 0 0 0 0 0 0 -0 0 -0 -0 0 0 0 0 0 0 0 0 0 0 -0 0 0 -0 -0 0 0 0 0 -0 0 0 0 0 0 0 0 0 0 0 -0 0
0 0 0 0 0 0 0 0 0 0 0 0 0 -0 0 0 0 0 0 0 0 0 0 0 0 -0 -0 0 0 0 -0 0 0 0 0 0 0 0 0 0 0 0 0 0 0 0 0
0 0 0 0 0 0 0 0 0 0 -0 0 0 0 0 0 0 0 0 0 0 0 0 0 0 0 0 0 0 0 0 0 0 0 0 0 0 0 0 0 0 0 0 0 0 0 0
0 0 0 0 0 0 0 0 0 0 -0 0 0 0 0 0 0 0 0 0 0 0 0 0 0 0 0 0 0 -0 0 0 0 0 0 0 0 0 -0 0 0 0 0 0 0 0 0
0 0 0 0 0 0 0 0 0 0 0 0 0 0 0 0 0 0 0 0 0 0 0 0 0 0 0 0 0 0 0 0 0 0 0 0 0 0 0 0 0 0 0 0 0 0 0
0 0 0 0 0 0 0 0 0 0 0 0 0 0 0 0 0 0 0 0 0 0 0 0 0 0 0 0 0 0 0 0 0 0 0 0 0 0 0 0 0 0 0 0 0 0 0
0 0 0 0 0 0 0 0 0 0 0 0 0 0 0 0 0 0 0 0 0 0 0 0 0 0 0 0 0 0 0 0 0 0 0 0 0 0 0 0 0 0 0 0 0 0 0
0 0 0 0 0 0 0 0 0 0 0 0 0 0 0 0 0 0 0 0 0 0 0 0 0 0 0 0 0 0 0 0 0 0 0 0 0 0 0 0 0 0 0 0 0 0 0
0 0 0 0 0 0 0 0 0 0 0 0 0 0 0 0 0 0 0 0 0 0 0 0 0 0 0 0 0 0 0 0 0 0 0 0 0 0 0 0 0 0 0 0 0 0 0
0 0 0 0 0 0 0 0 0 0 0 0 0 0 0 0 0 0 0 0 0 0 0 0 0 0 0 0 0 0 0 0 0 0 0 0 0 0 0 0 0 0 0 0 0 0 0
0 0 0 0 0 0 0 0 0 0 0 0 0 0 0 0 0 0 0 0 0 0 0 0 0 0 0 0 0 0 0 0 0 0 0 0 0 0 0 0 0 0 0 0 0 0 0
0 0 0 0 0 0 0 0 0 0 0 0 0 0 0 0 0 0 0 0 0 0 0 0 0 0 0 0 0 0 0 0 0 0 0 0 0 0 0 0 0 0 0 0 0 0 0
0 0 0 0 0 0 0 0 0 0 0 0 0 0 0 0 0 0 0 0 0 0 0 0 0 0 0 0 0 0 0 0 0 0 0 0 0 0 0 0 0 0 0 0 0 0 0
0 0 0 0 0 0 0 0 0 0 0 0 0 0 0 0 0 0 0 0 0 0 0 0 0 0 0 0 0 0 0 0 0 0 0 0 0 0 -0 0 0 0 0 0 0 0 0
0 0 0 0 0 0 0 0 0 0 0 0 0 0 0 0 0 0 0 0 0 0 0 0 0 0 0 0 0 0 0 0 0 0 0 0 0 0 0 0 0 0 0 0 0 0 0
Wind_Speed_500mb
44 35 26 19 13 9 7 9 12 13 14 13 12 12 13 13 14 16 18 16 10 4 2 6 13 6 16 16 23 17 11 8 8 4 11 20 33 38 24 11 9 28 8 8 5 8 13
49 45 39 29 19 13 8 6 8 10 11 11 13 14 14 13 15 17 17 15 9 5 3 7 11 3 12 12 14 10 8 7 7 7 6 7 3 12 7 8 14 8 6 13 12 12 3
49 48 46 42 34 20 10 6 6 7 9 11 13 13 13 13 14 15 16 15 9 6 4 6 9 5 16 14 15 10 10 6 6 4 6 4 1 19 4 14 6 6 20 12 15 9 11
44 45 46 45 44 36 19 8 5 5 8 10 12 12 12 12 14 15 15 13 9 7 5 4 4 6 3 17 13 11 12 9 4 2 3 5 7 12 21 5 15 26 20 27 28 10 14
38 40 42 44 45 46 35 18 7 3 5 8 10 11 12 13 13 13 13 12 9 8 5 2 3 11 9 15 14 11 11 8 8 7 7 7 12 26 10 25 29 21 23 6 13 5 9
33 35 37 39 41 44 45 31 19 6 3 6 8 11 12 12 12 12 12 9 7 7 4 2 9 15 13 18 7 12 13 11 13 11 17 19 25 23 27 27 17 4 5 8 14 13 17
30 30 32 34 36 38 40 40 29 19 6 4 8 10 12 13 13 13 15 7 9 9 24 16 19 7 10 7 11 14 12 14 15 19 28 20 26 4 30 21 24 18 13 16 15 4 12
25 27 28 30 32 33 35 36 35 27 16 2 7 11 14 16 13 14 15 14 7 9 24 18 10 10 8 10 15 13 12 17 15 28 10 15 12 21 11 14 16 16 19 21 9 9 17
21 23 25 27 28 30 31 32 33 32 25 8 7 14 18 16 15 21 7 5 2 5 17 24 16 17 19 20 8 15 13 6 21 11 23 14 29 11 10 10 14 20 8 24 26 28 32
18 20 23 24 26 27 29 30 31 32 30 14 8 18 20 18 14 15 10 1 4 6 11 25 22 16 17 13 14 3 5 12 14 16 11 4 16 5 13 6 14 25 18 22 25 25 22
15 19 21 23 25 26 27 28 29 30 30 19 8 22 17 15 11 8 5 1 4 4 11 26 27 13 18 25 19 17 7 11 15 5 12 15 17 14 18 23 12 22 21 21 21 22 25
17 18 21 23 25 26 26 27 27 26 27 22 6 22 16 8 8 3 1 6 3 14 4 16 18 23 24 23 14 12 14 11 7 6 14 12 7 4 18 1 7 18 27 30 26 18 23
19 21 22 24 27 28 28 27 27 24 23 20 5 23 23 22 3 6 7 11 13 18 13 18 25 26 30 17 17 17 17 18 15 17 22 12 20 14 8 21 20 20 25 17 7 14 9
19 22 25 26 28 30 30 28 27 26 20 17 8 16 22 18 9 9 10 18 15 4 16 10 8 24 25 24 20 12 13 17 7 16 6 14 15 16 10 10 17 17 18 11 16 17 24
18 20 24 26 28 29 30 30 27 25 22 15 10 4 18 19 19 9 22 18 15 5 8 8 20 19 24 24 13 23 21 15 10 8 13 5 6 14 7 7 8 21 15 18 16 30 18
20 19 21 24 27 29 30 30 29 25 21 16 7 10 15 19 22 12 17 23 5 4 7 16 25 26 26 24 20 21 26 3 8 8 6 11 18 7 16 8 14 12 14 11 14 10 16
21 21 21 22 24 27 29 30 29 25 19 15 6 16 8 14 23 24 17 17 11 12 9 10 23 6 27 18 28 23 8 17 2 8 10 16 7 10 15 15 16 13 13 9 5 14 15
23 22 23 24 25 26 29 29 28 26 17 10 9 16 6 16 24 31 21 15 4 17 17 13 12 19 11 16 11 24 12 10 3 5 9 8 9 18 30 9 11 15 16 13 11 16 14
26 26 26 27 28 28 28 29 27 24 20 13 12 14 4 20 17 16 11 8 14 12 20 11 16 15 6 10 8 15 10 8 6 9 3 7 8 14 19 16 8 9 2 9 11 13 21
29 29 29 30 30 31 30 28 26 21 16 12 11 10 17 25 33 19 19 21 20 15 16 13 17 7 14 13 13 8 14 9 9 5 3 1 13 17 22 29 18 20 22 17 15 14 21
35 33 32 30 32 31 31 29 25 20 15 8 14 14 8 14 27 27 25 15 22 16 22 20 21 25 23 18 19 15 13 12 14 15 12 6 18 24 19 23 20 26 28 28 26 24 25
36 35 34 32 29 28 26 26 22 18 13 9 13 12 8 15 9 18 18 25 22 16 6 20 23 28 26 24 22 20 23 18 15 19 16 9 15 15 22 29 20 27 29 28 26 24 25
33 33 31 29 24 22 19 17 16 13 13 10 11 14 11 18 22 20 25 28 23 26 13 14 10 6 23 6 11 17 13 5 9 15 20 14 16 10 22 20 18 27 25 24 25 11 16
30 28 25 23 18 15 14 10 10 10 19 8 11 9 19 20 20 23 21 19 16 17 24 17 14 20 10 7 1 4 8 12 16 13 20 16 16 16 17 19 26 4 6 9 10 13 16
27 25 22 19 17 13 11 8 6 10 14 8 6 8 15 18 22 25 10 15 15 9 21 16 10 3 7 6 15 17 13 15 22 22 21 21 17 18 12 22 25 24 9 12 15 18 21
27 24 22 19 17 13 10 8 6 9 14 10 8 10 8 20 6 11 20 24 19 20 21 21 8 4 4 16 19 31 26 31 14 17 15 16 19 17 25 27 28 17 9 9 10 21 27
28 25 22 20 17 14 10 7 6 8 13 15 8 12 5 19 6 3 13 10 25 16 12 13 14 12 10 16 23 27 29 33 33 27 23 15 26 28 27 27 26 8 5 9 18 19 22
27 25 23 20 18 15 12 9 6 6 11 15 12 15 6 16 5 8 7 12 10 18 17 8 8 20 17 21 24 23 25 28 28 26 23 24 4 8 28 25 27 19 13 6 22 27 18
27 25 23 20 18 16 14 12 10 8 9 13 3 9 17 10 7 6 12 11 6 3 10 7 6 6 12 10 18 20 25 24 23 24 23 21 18 17 23 14 4 4 16 23 20 30 32
Wind_Direction_500mb
66 67 68 72 82 107 152 184 203 210 215 213 209 202 194 186 186 183 184 188 196 213 288 339 347 2 205 228 110 145 150 156 160 183 249 209 193 210 228 205 204 238 135 184 188 227 265
66 65 64 62 64 71 89 137 177 192 199 201 200 192 189 189 189 186 187 193 204 218 286 341 347 290 244 206 134 141 163 179 191 219 154 256 169 299 109 166 261 91 172 185 208 220 124
62 62 61 59 57 56 67 93 126 155 172 182 187 186 190 189 189 188 189 197 210 225 272 332 345 322 266 125 152 144 149 158 187 194 226 133 238 232 196 165 240 191 228 195 217 205 221
61 59 56 54 52 48 51 74 109 147 172 185 189 191 188 185 189 190 188 199 218 232 255 325 354 262 9 151 162 160 165 164 164 226 278 275 267 294 263 60 229 252 253 235 149 192 170
61 58 56 51 48 46 48 60 74 126 176 192 189 183 180 185 188 187 189 202 218 228 237 322 88 229 179 163 187 184 200 207 190 228 249 243 263 264 195 241 237 187 266 159 162 204 275
60 57 55 52 48 45 44 51 53 64 168 187 185 183 183 181 180 182 185 190 188 209 230 197 246 252 190 187 188 222 216 220 225 223 223 232 229 228 219 229 292 68 355 167 273 154 221
57 55 53 51 49 46 43 42 44 46 50 182 189 184 177 173 172 175 167 165 191 216 216 273 159 294 131 191 187 202 194 207 224 231 238 206 248 246 40 8 350 345 312 274 282 3 284
49 48 48 46 44 43 42 40 38 37 34 49 181 175 170 165 166 169 177 229 352 357 208 221 229 231 187 187 179 169 186 219 215 238 214 221 221 60 31 346 308 293 287 286 327 210 261
40 38 37 40 37 35 35 36 33 32 28 33 159 166 162 159 143 144 198 188 230 299 254 170 200 203 181 196 197 134 241 220 248 223 220 313 93 100 278 230 320 281 305 340 319 315 282
24 24 23 24 28 26 26 26 29 27 27 35 142 165 160 150 143 154 152 318 258 247 255 151 196 207 187 218 188 109 267 289 227 230 207 113 104 244 253 246 331 313 13 309 296 296 294
7 6 8 7 10 13 14 15 20 22 24 30 138 164 166 181 135 205 135 235 222 238 246 147 163 140 193 208 109 177 217 254 262 155 264 118 178 214 257 44 342 358 321 294 293 285 282
346 350 351 351 353 357 359 3 6 15 18 25 121 168 161 151 187 176 260 272 295 232 209 150 162 195 192 212 189 133 196 237 18 213 244 82 23 290 19 74 280 300 297 286 251 244 234
332 337 339 340 340 342 345 348 351 358 8 17 54 184 176 179 237 238 271 245 227 253 117 149 178 184 197 180 159 195 183 181 194 210 188 172 176 117 269 284 188 334 347 315 263 216 332
318 326 331 332 332 333 334 336 337 340 350 359 8 198 201 195 245 275 241 240 256 287 186 73 219 186 205 172 188 205 206 167 247 282 310 234 152 182 107 352 338 309 329 321 323 321 328
305 316 321 326 328 329 328 329 329 328 329 340 346 257 209 219 226 238 252 233 221 237 54 235 184 213 202 179 237 196 222 237 147 210 306 276 123 95 82 293 310 353 324 1 289 266 259
296 305 313 319 324 326 328 326 325 323 320 321 323 239 189 222 210 225 246 262 346 352 322 237 238 216 207 196 201 196 195 193 163 272 313 353 299 134 116 252 194 282 350 257 211 291 313
285 295 305 312 318 323 326 330 324 322 318 309 292 243 187 199 209 231 238 230 205 176 239 249 253 256 255 238 188 202 251 111 144 175 240 286 251 267 233 224 357 305 254 206 312 295 313
280 286 295 302 310 318 322 326 332 325 320 299 258 237 145 173 200 223 234 207 37 250 204 242 290 287 266 257 245 252 229 83 86 243 229 72 303 292 304 80 319 293 301 328 297 290 270
272 282 289 295 302 310 315 318 324 330 335 347 260 259 201 184 231 207 208 203 223 223 238 237 225 246 236 235 214 290 73 72 172 219 294 174 229 280 291 159 186 245 318 275 290 289 273
273 278 284 291 296 302 307 308 308 313 318 326 267 223 198 212 253 294 188 224 208 199 255 238 265 236 214 232 230 174 134 161 148 152 133 30 268 269 283 313 328 296 290 268 251 275 284
271 276 280 285 291 296 301 299 295 287 295 299 230 243 336 202 222 233 262 223 220 187 228 211 228 230 221 229 214 215 136 144 170 161 187 254 264 276 270 290 286 281 284 281 268 252 263
265 271 277 281 286 292 294 291 286 269 256 251 283 264 229 257 285 228 229 246 239 207 247 215 237 227 234 243 237 245 205 184 200 181 210 197 268 271 284 269 261 278 278 272 259 269 274
257 261 266 271 276 282 285 286 279 251 209 233 252 276 266 212 210 231 228 224 226 258 185 280 297 263 229 254 344 347 342 13 259 178 213 206 267 239 276 301 295 280 287 255 242 249 265
244 248 253 259 263 268 273 275 268 227 204 201 262 252 247 242 230 221 243 216 224 210 250 189 257 249 49 351 275 241 242 229 233 214 201 223 233 276 270 278 271 68 355 348 307 297 283
229 235 241 246 250 251 257 252 239 213 191 139 272 232 249 256 235 225 237 217 223 197 239 241 140 333 324 287 234 204 206 215 222 208 209 230 242 275 267 270 307 312 291 212 255 273 297
226 225 230 234 239 239 238 237 210 203 193 143 273 199 249 268 208 345 208 226 232 216 199 225 192 255 236 261 225 247 235 233 232 192 254 226 236 262 278 280 277 285 88 20 326 274 328
219 217 215 222 224 227 226 223 204 183 191 171 259 207 218 246 134 228 247 265 228 278 266 208 179 240 228 243 246 249 248 254 263 198 209 250 240 235 245 255 277 287 251 120 271 282 297
212 212 214 215 222 222 224 221 210 177 171 158 245 209 171 247 131 207 257 240 233 244 249 93 214 217 242 239 254 252 253 260 265 281 226 226 246 338 253 291 284 63 108 248 283 310 299
211 209 213 217 218 226 226 225 215 198 164 153 181 245 207 235 17 218 218 217 215 346 292 171 320 317 356 258 236 255 265 264 272 269 239 250 209 279 302 207 343 61 284 303 276 281 291
Wind_Speed_850mb
44 35 26 19 13 9 7 9 12 13 14 13 12 12 13 13 14 16 18 16 10 4 2 6 13 6 16 16 23 17 11 8 8 4 11 20 33 38 24 11 9 28 8 8 5 8 13
49 45 39 29 19 13 8 6 8 10 11 11 13 14 14 13 15 17 17 15 9 5 3 7 11 3 12 12 14 10 8 7 7 7 6 7 3 12 7 8 14 8 6 13 12 12 3
49 48 46 42 34 20 10 6 6 7 9 11 13 13 13 13 14 15 16 15 9 6 4 6 9 5 16 14 15 10 10 6 6 4 6 4 1 19 4 14 6 6 20 12 15 9 11
44 45 46 45 44 36 19 8 5 5 8 10 12 12 12 12 14 15 15 13 9 7 5 4 4 6 3 17 13 11 12 9 4 2 3 5 7 12 21 5 15 26 20 27 28 10 14
38 40 42 44 45 46 35 18 7 3 5 8 10 11 12 13 13 13 13 12 9 8 5 2 3 11 9 15 14 11 11 8 8 7 7 7 12 26 10 25 29 21 23 6 13 5 9
33 35 37 39 41 44 45 31 19 6 3 6 8 11 12 12 12 12 12 9 7 7 4 2 9 15 13 18 7 12 13 11 13 11 17 19 25 23 27 27 17 4 5 8 14 13 17
30 30 32 34 36 38 40 40 29 19 6 4 8 10 12 13 13 13 15 7 9 9 24 16 19 7 10 7 11 14 12 14 15 19 28 20 26 4 30 21 24 18 13 16 15 4 12
25 27 28 30 32 33 35 36 35 27 16 2 7 11 14 16 13 14 15 14 7 9 24 18 10 10 8 10 15 13 12 17 15 28 10 15 12 21 11 14 16 16 19 21 9 9 17
21 23 25 27 28 30 31 32 33 32 25 8 7 14 18 16 15 21 7 5 2 5 17 24 16 17 19 20 8 15 13 6 21 11 23 14 29 11 10 10 14 20 8 24 26 28 32
18 20 23 24 26 27 29 30 31 32 30 14 8 18 20 18 14 15 10 1 4 6 11 25 22 16 17 13 14 3 5 12 14 16 11 4 16 5 13 6 14 25 18 22 25 25 22
15 19 21 23 25 26 27 28 29 30 30 19 8 22 17 15 11 8 5 1 4 4 11 26 27 13 18 25 19 17 7 11 15 5 12 15 17 14 18 23 12 22 21 21 21 22 25
17 18 21 23 25 26 26 27 27 26 27 22 6 22 16 8 8 3 1 6 3 14 4 16 18 23 24 23 14 12 14 11 7 6 14 12 7 4 18 1 7 18 27 30 26 18 23
19 21 22 24 27 28 28 27 27 24 23 20 5 23 23 22 3 6 7 11 13 18 13 18 25 26 30 17 17 17 17 18 15 17 22 12 20 14 8 21 20 20 25 17 7 14 9
19 22 25 26 28 30 30 28 27 26 20 17 8 16 22 18 9 9 10 18 15 4 16 10 8 24 25 24 20 12 13 17 7 16 6 14 15 16 10 10 17 17 18 11 16 17 24
18 20 24 26 28 29 30 30 27 25 22 15 10 4 18 19 19 9 22 18 15 5 8 8 20 19 24 24 13 23 21 15 10 8 13 5 6 14 7 7 8 21 15 18 16 30 18
20 19 21 24 27 29 30 30 29 25 21 16 7 10 15 19 22 12 17 23 5 4 7 16 25 26 26 24 20 21 26 3 8 8 6 11 18 7 16 8 14 12 14 11 14 10 16
21 21 21 22 24 27 29 30 29 25 19 15 6 16 8 14 23 24 17 17 11 12 9 10 23 6 27 18 28 23 8 17 2 8 10 16 7 10 15 15 16 13 13 9 5 14 15
23 22 23 24 25 26 29 29 28 26 17 10 9 16 6 16 24 31 21 15 4 17 17 13 12 19 11 16 11 24 12 10 3 5 9 8 9 18 30 9 11 15 16 13 11 16 14
26 26 26 27 28 28 28 29 27 24 20 13 12 14 4 20 17 16 11 8 14 12 20 11 16 15 6 10 8 15 10 8 6 9 3 7 8 14 19 16 8 9 2 9 11 13 21
29 29 29 30 30 31 30 28 26 21 16 12 11 10 17 25 33 19 19 21 20 15 16 13 17 7 14 13 13 8 14 9 9 5 3 1 13 17 22 29 18 20 22 17 15 14 21
35 33 32 30 32 31 31 29 25 20 15 8 14 14 8 14 27 27 25 15 22 16 22 20 21 25 23 18 19 15 13 12 14 15 12 6 18 24 19 23 20 26 28 28 26 24 25
36 35 34 32 29 28 26 26 22 18 13 9 13 12 8 15 9 18 18 25 22 16 6 20 23 28 26 24 22 20 23 18 15 19 16 9 15 15 22 29 20 27 29 28 26 24 25
33 33 31 29 24 22 19 17 16 13 13 10 11 14 11 18 22 20 25 28 23 26 13 14 10 6 23 6 11 17 13 5 9 15 20 14 16 10 22 20 18 27 25 24 25 11 16
30 28 25 23 18 15 14 10 10 10 19 8 11 9 19 20 20 23 21 19 16 17 24 17 14 20 10 7 1 4 8 12 16 13 20 16 16 16 17 19 26 4 6 9 10 13 16
27 25 22 19 17 13 11 8 6 10 14 8 6 8 15 18 22 25 10 15 15 9 21 16 10 3 7 6 15 17 13 15 22 22 21 21 17 18 12 22 25 24 9 12 15 18 21
27 24 22 19 17 13 10 8 6 9 14 10 8 10 8 20 6 11 20 24 19 20 21 21 8 4 4 16 19 31 26 31 14 17 15 16 19 17 25 27 28 17 9 9 10 21 27
28 25 22 20 17 14 10 7 6 8 13 15 8 12 5 19 6 3 13 10 25 16 12 13 14 12 10 16 23 27 29 33 33 27 23 15 26 28 27 27 26 8 5 9 18 19 22
27 25 23 20 18 15 12 9 6 6 11 15 12 15 6 16 5 8 7 12 10 18 17 8 8 20 17 21 24 23 25 28 28 26 23 24 4 8 28 25 27 19 13 6 22 27 18
27 25 23 20 18 16 14 12 10 8 9 13 3 9 17 10 7 6 12 11 6 3 10 7 6 6 12 10 18 20 25 24 23 24 23 21 18 17 23 14 4 4 16 23 20 30 32
Wind_Direction_850mb
66 67 68 72 82 107 152 184 203 210 215 213 209 202 194 186 186 183 184 188 196 213 288 339 347 2 205 228 110 145 150 156 160 183 249 209 193 210 228 205 204 238 135 184 188 227 265
66 65 64 62 64 71 89 137 177 192 199 201 200 192 189 189 189 186 187 193 204 218 286 341 347 290 244 206 134 141 163 179 191 219 154 256 169 299 109 166 261 91 172 185 208 220 124
62 62 61 59 57 56 67 93 126 155 172 182 187 186 190 189 189 188 189 197 210 225 272 332 345 322 266 125 152 144 149 158 187 194 226 133 238 232 196 165 240 191 228 195 217 205 221
61 59 56 54 52 48 51 74 109 147 172 185 189 191 188 185 189 190 188 199 218 232 255 325 354 262 9 151 162 160 165 164 164 226 278 275 267 294 263 60 229 252 253 235 149 192 170
61 58 56 51 48 46 48 60 74 126 176 192 189 183 180 185 188 187 189 202 218 228 237 322 88 229 179 163 187 184 200 207 190 228 249 243 263 264 195 241 237 187 266 159 162 204 275
60 57 55 52 48 45 44 51 53 64 168 187 185 183 183 181 180 182 185 190 188 209 230 197 246 252 190 187 188 222 216 220 225 223 223 232 229 228 219 229 292 68 355 167 273 154 221
57 55 53 51 49 46 43 42 44 46 50 182 189 184 177 173 172 175 167 165 191 216 216 273 159 294 131 191 187 202 194 207 224 231 238 206 248 246 40 8 350 345 312 274 282 3 284
49 48 48 46 44 43 42 40 38 37 34 49 181 175 170 165 166 169 177 229 352 357 208 221 229 231 187 187 179 169 186 219 215 238 214 221 221 60 31 346 308 293 287 286 327 210 261
40 38 37 40 37 35 35 36 33 32 28 33 159 166 162 159 143 144 198 188 230 299 254 170 200 203 181 196 197 134 241 220 248 223 220 313 93 100 278 230 320 281 305 340 319 315 282
24 24 23 24 28 26 26 26 29 27 27 35 142 165 160 150 143 154 152 318 258 247 255 151 196 207 187 218 188 109 267 289 227 230 207 113 104 244 253 246 331 313 13 309 296 296 294
7 6 8 7 10 13 14 15 20 22 24 30 138 164 166 181 135 205 135 235 222 238 246 147 163 140 193 208 109 177 217 254 262 155 264 118 178 214 257 44 342 358 321 294 293 285 282
346 350 351 351 353 357 359 3 6 15 18 25 121 168 161 151 187 176 260 272 295 232 209 150 162 195 192 212 189 133 196 237 18 213 244 82 23 290 19 74 280 300 297 286 251 244 234
332 337 339 340 340 342 345 348 351 358 8 17 54 184 176 179 237 238 271 245 227 253 117 149 178 184 197 180 159 195 183 181 194 210 188 172 176 117 269 284 188 334 347 315 263 216 332
318 326 331 332 332 333 334 336 337 340 350 359 8 198 201 195 245 275 241 240 256 287 186 73 219 186 205 172 188 205 206 167 247 282 310 234 152 182 107 352 338 309 329 321 323 321 328
305 316 321 326 328 329 328 329 329 328 329 340 346 257 209 219 226 238 252 233 221 237 54 235 184 213 202 179 237 196 222 237 147 210 306 276 123 95 82 293 310 353 324 1 289 266 259
296 305 313 319 324 326 328 326 325 323 320 321 323 239 189 222 210 225 246 262 346 352 322 237 238 216 207 196 201 196 195 193 163 272 313 353 299 134 116 252 194 282 350 257 211 291 313
285 295 305 312 318 323 326 330 324 322 318 309 292 243 187 199 209 231 238 230 205 176 239 249 253 256 255 238 188 202 251 111 144 175 240 286 251 267 233 224 357 305 254 206 312 295 313
280 286 295 302 310 318 322 326 332 325 320 299 258 237 145 173 200 223 234 207 37 250 204 242 290 287 266 257 245 252 229 83 86 243 229 72 303 292 304 80 319 293 301 328 297 290 270
272 282 289 295 302 310 315 318 324 330 335 347 260 259 201 184 231 207 208 203 223 223 238 237 225 246 236 235 214 290 73 72 172 219 294 174 229 280 291 159 186 245 318 275 290 289 273
273 278 284 291 296 302 307 308 308 313 318 326 267 223 198 212 253 294 188 224 208 199 255 238 265 236 214 232 230 174 134 161 148 152 133 30 268 269 283 313 328 296 290 268 251 275 284
271 276 280 285 291 296 301 299 295 287 295 299 230 243 336 202 222 233 262 223 220 187 228 211 228 230 221 229 214 215 136 144 170 161 187 254 264 276 270 290 286 281 284 281 268 252 263
265 271 277 281 286 292 294 291 286 269 256 251 283 264 229 257 285 228 229 246 239 207 247 215 237 227 234 243 237 245 205 184 200 181 210 197 268 271 284 269 261 278 278 272 259 269 274
257 261 266 271 276 282 285 286 279 251 209 233 252 276 266 212 210 231 228 224 226 258 185 280 297 263 229 254 344 347 342 13 259 178 213 206 267 239 276 301 295 280 287 255 242 249 265
244 248 253 259 263 268 273 275 268 227 204 201 262 252 247 242 230 221 243 216 224 210 250 189 257 249 49 351 275 241 242 229 233 214 201 223 233 276 270 278 271 68 355 348 307 297 283
229 235 241 246 250 251 257 252 239 213 191 139 272 232 249 256 235 225 237 217 223 197 239 241 140 333 324 287 234 204 206 215 222 208 209 230 242 275 267 270 307 312 291 212 255 273 297
226 225 230 234 239 239 238 237 210 203 193 143 273 199 249 268 208 345 208 226 232 216 199 225 192 255 236 261 225 247 235 233 232 192 254 226 236 262 278 280 277 285 88 20 326 274 328
219 217 215 222 224 227 226 223 204 183 191 171 259 207 218 246 134 228 247 265 228 278 266 208 179 240 228 243 246 249 248 254 263 198 209 250 240 235 245 255 277 287 251 120 271 282 297
212 212 214 215 222 222 224 221 210 177 171 158 245 209 171 247 131 207 257 240 233 244 249 93 214 217 242 239 254 252 253 260 265 281 226 226 246 338 253 291 284 63 108 248 283 310 299
211 209 213 217 218 226 226 225 215 198 164 153 181 245 207 235 17 218 218 217 215 346 292 171 320 317 356 258 236 255 265 264 272 269 239 250 209 279 302 207 343 61 284 303 276 281 291